Hourly Data Report for June 08, 2021

CARIBOU POINT (AUT)
NOVA SCOTIA
Current Station Operator: ECCC - MSC

45°46'00.000" N
62°41'00.000" W
2.40 m
8200774
71415
WBK

Download Data

Hourly Data (June 2021)
Hourly Data Report for June 8, 2021
TIME
LST
Temp Definition
°C
Dew Point Definition
°C
Rel Hum Definition
%
Precip. Amount Definition
mm

Wind Dir Definition
10's deg

Wind Spd Definition
km/h
Visibility Definition
km
Stn Press Definition
kPa
Hmdx Definition


Wind Chill Definition


Weather Definition


00:00 24.4 15.6 58 0.0 25 15   100.86 29   LegendNANA
01:00 23.2 16.4 66 0.0 23 15   100.80 28   LegendNANA
02:00 22.8 16.4 67 0.0 24 12   100.80 28   LegendNANA
03:00 21.1 16.2 74 0.0 23 17   100.78 26   LegendNANA
04:00 20.2 16.1 78 0.0 22 14   100.80 25   LegendNANA
05:00 19.4 15.8 79 0.0 22 11   100.79     LegendNANA
06:00 21.1 16.2 74 0.0 23 15   100.81 26   LegendNANA
07:00 22.7 16.6 68 0.0 22 16   100.81 28   LegendNANA
08:00 24.2 17.6 67 0.0 22 12   100.83 30   LegendNANA
09:00 27.6 18.9 59 0.0 23 9   100.81 34   LegendNANA
10:00 29.7 19.8 55 0.0 26 17   100.77 37   LegendNANA
11:00 20.1 15.9 77 0.0 31 12   100.77 25   LegendNANA
12:00 20.3 16.8 80 0.0 30 6   100.77 25   LegendNANA
13:00 22.4 17.7 75 0.0 30 19   100.74 28   LegendNANA
14:00 24.8 18.4 68 0.0 29 19   100.75 31   LegendNANA
15:00 23.3 18.3 74 0.0 29 14   100.71 30   LegendNANA
16:00 21.5 17.6 79 0.0 29 12   100.77 27   LegendNANA
17:00 22.8 17.1 70 0.0 28 16   100.79 28   LegendNANA
18:00 27.2 20.6 68 0.0 25 5   100.74 35   LegendNANA
19:00 17.9 15.5 86 0.0 5 8   100.76     LegendNANA
20:00 17.2 12.7 75 0.0 7 20   100.92     LegendNANA
21:00 15.9 13.9 88 0.0 13 12   101.00     LegendNANA
22:00 16.0 13.5 85 0.0 11 8   101.02     LegendNANA
23:00 17.0 13.2 78 0.0 8 5   101.05     LegendNANA

Notes on Data Quality.

Legend

  • E = Estimated
  • M = Missing
  • NA = Not Available*
  • [empty] = Indicates an unobserved value
Date modified: